Weather History for Panama City Tyndall AFB, FL

Change the Weather History Date:

Thursday, November 8, 2012

  Actual Average Record
Temperature  
Mean Temperature 54 °F -  
Max Temperature 65 °F 72 °F 82 °F (2000)
Min Temperature 43 °F 53 °F 37 °F (2010)
Degree Days  
Heating Degree Days 11    
Growing Degree Days 4 (Base 50)    
Moisture  
Dew Point 45 °F    
Average Humidity 79    
Maximum Humidity 99    
Minimum Humidity 52    
Precipitation  
Precipitation 0.00 in - - ()
Sea Level Pressure  
Sea Level Pressure 30.18 in    
Wind  
Wind Speed 6 mph (North)    
Max Wind Speed 10 mph    
Max Gust Speed -    
Visibility 10 miles    
Events      
Averages and records for this station are not official NWS values.
T = Trace of Precipitation, MM = Missing Value Source: NWS Daily Summary

Daily Weather History Graph

Daily Weather History Graph

Search for Another Location

Airport:

Trip Planner

Search our weather history database for the weather conditions in past years. The results will help you decide how hot, cold, wet, or windy it might be!

Date:

Astronomy

Nov. 08, 2012 Rise Set
Actual Time 6:02 AM CST 4:49 PM CST
Civil Twilight 5:37 AM CST 5:14 PM CST
Nautical Twilight 5:08 AM CST 5:43 PM CST
Astronomical Twilight 4:40 AM CST 6:11 PM CST
Moon 12:21 AM CST (11/8) 1:08 PM CST (11/8)
Length of Visible Light 11h 37m
Length of Day
10h 47m
Waning Crescent, 32% of the Moon is Illuminated
Nov 8
Waning Crescent
Nov 13
New
Nov 20
First Quarter
Nov 28
Full
Dec 6
Last Quarter

Hourly Weather History & Observations

Time (CST) Temp. Windchill Dew Point Humidity Pressure Visibility Wind Dir Wind Speed Gust Speed Precip Events Conditions
12:55 AM 49.8 °F - 44.4 °F 82% 30.10 in 10.0 mi North 10.4 mph - N/A   Clear
1:55 AM 48.4 °F - 43.9 °F 84% 30.10 in 10.0 mi North 9.2 mph - N/A   Clear
2:55 AM 47.1 °F - 43.5 °F 87% 30.11 in 10.0 mi North 9.2 mph - N/A   Clear
3:55 AM 46.0 °F 42.5 °F 43.3 °F 90% 30.13 in 10.0 mi North 6.9 mph - N/A   Clear
4:55 AM 45.0 °F 40.6 °F 43.2 °F 93% 30.15 in 10.0 mi North 8.1 mph - N/A   Clear
5:55 AM 43.7 °F 42.1 °F 42.6 °F 96% 30.17 in 10.0 mi NNW 3.5 mph - N/A   Clear
6:55 AM 46.0 °F 42.5 °F 44.1 °F 93% 30.19 in 10.0 mi North 6.9 mph - N/A   Clear
7:55 AM 50.2 °F - 45.5 °F 84% 30.22 in 10.0 mi NE 6.9 mph - N/A   Clear
8:55 AM 53.4 °F - 46.2 °F 77% 30.22 in 10.0 mi NNE 10.4 mph - N/A   Clear
9:55 AM 57.0 °F - 47.5 °F 70% 30.22 in 10.0 mi North 6.9 mph - N/A   Clear
10:55 AM 60.3 °F - 46.2 °F 60% 30.21 in 10.0 mi Variable 5.8 mph - N/A   Clear
11:55 AM 62.4 °F - 47.3 °F 58% 30.18 in 10.0 mi NE 6.9 mph - N/A   Clear
12:55 PM 63.9 °F - 47.1 °F 54% 30.16 in 10.0 mi NE 8.1 mph - N/A   Clear
1:55 PM 64.4 °F - 46.6 °F 52% 30.15 in 10.0 mi NE 5.8 mph - N/A   Clear
2:55 PM 65.3 °F - 47.7 °F 53% 30.15 in 10.0 mi Calm Calm - N/A   Clear
3:55 PM 64.4 °F - 47.3 °F 54% 30.16 in 10.0 mi Calm Calm - N/A   Clear
4:55 PM 58.1 °F - 48.6 °F 71% 30.17 in 10.0 mi Calm Calm - N/A   Clear
5:55 PM 52.2 °F - 47.1 °F 83% 30.19 in 10.0 mi Calm Calm - N/A   Clear
6:55 PM 49.6 °F - 46.6 °F 89% 30.19 in 10.0 mi Calm Calm - N/A   Clear
7:55 PM 48.4 °F - 45.0 °F 88% 30.21 in 10.0 mi Calm Calm - N/A   Clear
8:55 PM 47.5 °F - 44.8 °F 90% 30.22 in 10.0 mi Calm Calm - N/A   Clear
9:55 PM 45.9 °F - 44.6 °F 95% 30.22 in 10.0 mi Calm Calm - N/A   Clear
10:55 PM 44.1 °F - 43.7 °F 99% 30.21 in 10.0 mi Calm Calm - N/A   Clear
11:55 PM 43.5 °F - 43.3 °F 99% 30.22 in 9.0 mi Calm Calm - N/A   Clear